Location: Newark
(49.3000°N, 9.4667°E)
Time: 03:08:45
(UTC+00:00)

Tiros 1 - Pass Details

Date: 24 May 2019
Orbit: 631 x 664 km, 48.4° (Epoch: 17 June)

Event Time Altitude Azimuth Distance (km) Brightness Sun altitude
Rises 08:57:06 0° 203° (SSW) 2,911 10.6 49.9°
Reaches altitude 10° 08:59:58 10° 185° (S) 2,011 10.1 50.3°
Maximum altitude 09:03:11 19° 141° (SE) 1,519 10.2 50.8°
Drops below altitude 10° 09:06:26 10° 96° (E) 2,031 10.4 51.2°
Sets 09:09:20 0° 79° (E) 2,951 10.9 51.6°
